Weather History for VIDP - September, 2013

Change the Weather History Date:

Thursday, September 26, 2013

  Actual Average Record
Temperature  
Mean Temperature 84 °F -  
Max Temperature 91 °F 88 °F 100 °F (1997)
Min Temperature 77 °F 68 °F 71 °F (2002)
Cooling Degree Days 19    
Growing Degree Days 34 (Base 50)    
Moisture  
Dew Point 76 °F    
Average Humidity 81    
Maximum Humidity 100    
Minimum Humidity 59    
Precipitation  
Precipitation 0.00 in - - ()
Sea Level Pressure  
Sea Level Pressure 29.77 in    
Wind  
Wind Speed 4 mph ()    
Max Wind Speed 13 mph    
Max Gust Speed -    
Visibility 1.9 miles    
Events      
Averages and records for this station are not official NWS values.
T = Trace of Precipitation, MM = Missing Value Source: Averaged Metar Reports

Daily Weather History Graph

Daily Weather History Graph

Search for Another Location

Airport or City:

Trip Planner

Search our weather history database for the weather conditions in past years. The results will help you decide how hot, cold, wet, or windy it might be!

Date:

Astronomy

Sep. 26, 2013 Rise Set
Actual Time 6:11 AM IST 6:13 PM IST
Civil Twilight 5:48 AM IST 6:37 PM IST
Nautical Twilight 5:20 AM IST 7:04 PM IST
Astronomical Twilight 4:53 AM IST 7:31 PM IST
Moon 11:11 PM IST (9/26) 12:18 PM IST (9/26)
Length of Visible Light 12h 48m
Length of Day
12h 01m
Waning Gibbous, 58% of the Moon is Illuminated
Sep 26
Waning Gibbous
Sep 27
Last Quarter
Oct 5
New
Oct 12
First Quarter
Oct 19
Full

Hourly Weather History & Observations

Time (IST) Temp. Heat Index Dew Point Humidity Pressure Visibility Wind Dir Wind Speed Gust Speed Precip Events Conditions
12:00 AM 80.6 °F 87.1 °F 77.0 °F 89% 29.77 in 1.1 mi East 4.6 mph - N/A   Scattered Clouds
12:30 AM 80.6 °F 87.1 °F 77.0 °F 89% 29.77 in 1.1 mi East 3.5 mph - N/A   Scattered Clouds
1:00 AM 80.6 °F 87.1 °F 77.0 °F 89% 29.77 in 1.2 mi East 3.5 mph - N/A   Scattered Clouds
1:30 AM 80.6 °F 87.1 °F 77.0 °F 89% 29.77 in 1.3 mi East 4.6 mph - N/A   Scattered Clouds
2:00 AM 80.6 °F 86.2 °F 75.2 °F 84% 29.77 in 1.3 mi East 3.5 mph - N/A   Scattered Clouds
2:30 AM 80.6 °F 86.2 °F 75.2 °F 84% 29.74 in 1.3 mi East 4.6 mph - N/A   Mostly Cloudy
3:00 AM 80.6 °F 86.2 °F 75.2 °F 84% 29.74 in 1.3 mi ESE 4.6 mph - N/A   Mostly Cloudy
3:30 AM 78.8 °F - 75.2 °F 89% 29.74 in 1.3 mi ESE 4.6 mph - N/A   Mostly Cloudy
4:00 AM 77.0 °F - 75.2 °F 94% 29.74 in 1.3 mi East 3.5 mph - N/A   Mostly Cloudy
4:30 AM 77.0 °F - 75.2 °F 94% 29.74 in 1.3 mi ESE 4.6 mph - N/A   Mostly Cloudy
5:00 AM 77.0 °F - 75.2 °F 94% 29.74 in 1.3 mi ESE 4.6 mph - N/A   Mostly Cloudy
5:30 AM 78.8 °F - 77.0 °F 94% 29.74 in 1.3 mi ESE 5.8 mph - N/A   Mostly Cloudy
6:00 AM 77.0 °F - 77.0 °F 100% 29.77 in 1.3 mi ESE 4.6 mph - N/A   Mostly Cloudy
6:30 AM 77.0 °F - 77.0 °F 100% 29.77 in 1.1 mi ESE 6.9 mph - N/A   Mostly Cloudy
7:30 AM 78.8 °F - 77.0 °F 94% 29.80 in 0.9 mi ESE 6.9 mph - N/A   Mostly Cloudy
8:00 AM 78.8 °F - 77.0 °F 94% 29.80 in 1.1 mi ESE 6.9 mph - N/A   Mostly Cloudy
8:30 AM 82.4 °F 90.9 °F 77.0 °F 84% 29.83 in 1.2 mi East 6.9 mph - N/A   Mostly Cloudy
9:00 AM 82.4 °F 90.9 °F 77.0 °F 84% 29.83 in 1.6 mi East 4.6 mph - N/A   Mostly Cloudy
10:00 AM 82.4 °F 89.5 °F 75.2 °F 79% 29.83 in - SSE 6.9 mph - N/A   Scattered Clouds
10:30 AM 84.2 °F 92.3 °F 75.2 °F 74% 29.83 in 2.5 mi South 6.9 mph - N/A   Haze
11:00 AM 84.2 °F 92.3 °F 75.2 °F 74% 29.83 in 2.8 mi South 5.8 mph - N/A   Haze
11:30 AM 84.2 °F 92.3 °F 75.2 °F 74% 29.80 in 2.8 mi South 4.6 mph - N/A   Haze
12:00 PM 87.8 °F 97.6 °F 75.2 °F 66% 29.80 in 2.8 mi West 4.6 mph - N/A   Haze
12:30 PM 87.8 °F 97.6 °F 75.2 °F 66% 29.80 in 2.8 mi SW 4.6 mph - N/A   Haze
1:00 PM 89.6 °F 99.8 °F 75.2 °F 62% 29.77 in 2.8 mi West 4.6 mph - N/A   Haze
2:00 PM 91.4 °F 102.5 °F 75.2 °F 59% 29.74 in 3.1 mi West 4.6 mph - N/A   Haze
2:30 PM 89.6 °F 98.2 °F 73.4 °F 59% 29.74 in 3.1 mi SSW 3.5 mph - N/A   Haze
3:00 PM 89.6 °F 99.8 °F 75.2 °F 62% 29.74 in 3.1 mi ESE 5.8 mph - N/A   Haze
3:30 PM 86.0 °F 95.1 °F 75.2 °F 70% 29.74 in 2.8 mi NE 12.7 mph - N/A   Haze
4:00 PM 84.2 °F 92.3 °F 75.2 °F 74% 29.74 in 2.5 mi North 9.2 mph - N/A   Haze
4:30 PM 84.2 °F 92.3 °F 75.2 °F 74% 29.74 in 2.5 mi North 9.2 mph - N/A   Haze
5:00 PM 84.2 °F 92.3 °F 75.2 °F 74% 29.74 in 2.2 mi NE 3.5 mph - N/A   Haze
5:30 PM 84.2 °F 92.3 °F 75.2 °F 74% 29.74 in 2.2 mi Calm Calm - N/A   Haze
6:00 PM 84.2 °F 92.3 °F 75.2 °F 74% 29.74 in 2.2 mi Calm Calm - N/A   Haze
6:30 PM 84.2 °F 92.3 °F 75.2 °F 74% 29.74 in - SW 6.9 mph - N/A   Haze
7:00 PM 84.2 °F 92.3 °F 75.2 °F 74% 29.74 in - SW 8.1 mph - N/A   Haze
8:00 PM 80.6 °F 86.2 °F 75.2 °F 84% 29.77 in 1.9 mi SW 5.8 mph - N/A   Mostly Cloudy
8:30 PM 80.6 °F 86.2 °F 75.2 °F 84% 29.77 in 1.9 mi WSW 5.8 mph - N/A   Mostly Cloudy
9:00 PM 80.6 °F 86.2 °F 75.2 °F 84% 29.77 in 1.9 mi WSW 4.6 mph - N/A   Mostly Cloudy
9:30 PM 80.6 °F 86.2 °F 75.2 °F 84% 29.77 in 1.9 mi West 4.6 mph - N/A   Mostly Cloudy
10:00 PM 80.6 °F 86.2 °F 75.2 °F 84% 29.77 in 1.9 mi WSW 4.6 mph - N/A   Mostly Cloudy
10:30 PM 80.6 °F 86.2 °F 75.2 °F 84% 29.77 in 1.9 mi West 3.5 mph - N/A   Mostly Cloudy
11:00 PM 80.6 °F 86.2 °F 75.2 °F 84% 29.77 in 1.9 mi West 3.5 mph - N/A   Mostly Cloudy
11:30 PM 80.6 °F 86.2 °F 75.2 °F 84% 29.77 in 1.9 mi Calm Calm - N/A   Mostly Cloudy